CW7218 Weather Reports


time (UTC)temp
F
wind
direction
speed
knots
gust
knots
rain 1hr
in
rain 24hr
in
rain mn
in
humidity
%
barometer
mb
20260503200017 55 180 3.5 6.1 0.00 0.03 0.02 83 1013.5
20260503195037 55 203 3.5 6.1 0.00 0.03 0.02 81 1013.3
20260503194017 55 203 3.5 6.1 0.00 0.03 0.02 81 1013.2
20260503193037 55 180 2.6 5.2 0.00 0.03 0.02 79 1013.1
20260503192117 56 203 3.5 6.1 0.00 0.03 0.02 79 1013.0
20260503191017 56 180 3.5 6.1 0.00 0.03 0.02 78 1013.0
20260503190017 56 203 4.3 7.0 0.00 0.03 0.02 76 1012.8
20260503185037 56 203 3.5 5.2 0.00 0.03 0.02 75 1012.7
20260503184017 56 180 3.5 6.1 0.00 0.03 0.02 73 1012.7
20260503183017 57 248 4.3 10.4 0.00 0.03 0.02 70 1012.6
20260503182017 57 203 4.3 8.7 0.00 0.03 0.02 68 1012.5
20260503181017 57 203 7.0 12.2 0.00 0.03 0.02 68 1012.4
20260503180037 58 180 4.3 11.3 0.00 0.03 0.02 68 1012.4
20260503175017 58 203 4.3 6.1 0.00 0.03 0.02 70 1012.4
20260503174017 59 203 3.5 6.1 0.00 0.03 0.02 70 1012.5
20260503173017 59 203 3.5 6.1 0.00 0.03 0.02 70 1012.6
20260503172017 59 180 2.6 6.1 0.00 0.03 0.02 70 1012.4
20260503171017 59 180 3.5 6.1 0.00 0.03 0.02 69 1012.4
20260503131036 64 180 4.3 9.6 0.00 0.03 0.02 65 1014.2
20260503081017 58 158 1.7 3.5 0.00 0.09 0.02 68 1016.0
20260503072017 56 158 0.9 2.6 0.00 0.21 0.02 80 1015.9
20260503071017 55 0.0 1.7 0.00 0.23 0.02 79 1015.8
20260503055017 52 23 4.3 8.7 0.00 0.25 0.02 86 1015.8
20260503054017 51 45 3.5 5.2 0.00 0.25 0.02 87 1015.8
20260503053017 51 45 4.3 7.0 0.00 0.25 0.02 88 1015.9
20260503052017 51 45 3.5 7.0 0.01 0.25 0.02 88 1015.8
20260503051017 51 68 3.5 6.1 0.01 0.25 0.02 88 1015.8
20260503050017 51 68 3.5 7.0 0.01 0.25 0.02 87 1015.7
20260503045016 51 45 4.3 7.8 0.01 0.25 0.02 87 1015.4
20260503044017 51 23 4.3 7.0 0.01 0.25 0.02 87 1015.4
20260503043017 51 45 3.5 6.1 0.02 0.25 0.02 86 1015.5
20260503042037 52 23 3.5 7.0 0.01 0.24 0.01 85 1015.9
20260503041016 52 23 2.6 6.1 0.01 0.24 0.01 86 1015.9
20260503040019 52 90 1.7 5.2 0.01 0.24 0.01 86 1016.1
20260503035017 52 45 2.6 4.3 0.01 0.24 0.01 86 1016.0
20260503034036 52 45 3.5 6.1 0.01 0.24 0.01 87 1016.1
20260503033016 52 45 3.5 7.8 0.00 0.24 0.00 87 1016.3
20260503032017 52 45 3.5 5.2 0.00 0.24 0.00 86 1016.6
20260503031016 52 45 1.7 4.3 0.00 0.24 0.00 85 1016.6
20260503030016 53 248 1.7 3.5 0.00 0.24 0.00 85 1016.5
20260503025016 53 225 0.9 2.6 0.00 0.24 0.00 86 1016.7
20260503024016 53 90 0.9 2.6 0.00 0.24 0.00 86 1016.7
20260503023016 52 45 2.6 5.2 0.00 0.24 0.00 84 1016.6
20260503022016 52 23 3.5 5.2 0.00 0.24 0.00 85 1016.6
20260503021016 53 270 0.9 2.6 0.00 0.24 0.00 85 1016.8
20260503020016 53 0.0 1.7 0.00 0.24 0.00 84 1016.8
20260503015016 53 203 0.9 3.5 0.00 0.24 0.00 84 1016.9
20260503014016 53 315 0.9 4.3 0.00 0.24 0.00 83 1017.0
20260503013016 53 45 3.5 6.1 0.00 0.24 0.00 82 1016.9
20260503012016 53 45 3.5 6.1 0.00 0.24 0.00 82 1016.8
20260503011016 53 90 3.5 7.0 0.00 0.24 0.00 81 1016.9
20260503010036 53 90 1.7 5.2 0.00 0.24 0.00 81 1016.9
20260503005016 53 90 0.9 3.5 0.00 0.24 0.00 81 1017.0
20260503004036 53 0 1.7 5.2 0.00 0.24 0.00 80 1017.1
20260503003016 53 23 3.5 6.1 0.02 0.24 0.00 79 1017.1
20260503002016 53 68 2.6 7.8 0.02 0.24 0.00 79 1017.3
20260503001016 53 45 2.6 5.2 0.02 0.24 0.00 80 1017.4
20260503000016 53 23 4.3 7.0 0.02 0.24 0.24 80 1017.5
20260502235016 53 23 6.1 9.6 0.02 0.24 0.24 80 1017.6
20260502234016 53 45 5.2 8.7 0.02 0.24 0.24 81 1017.7
20260502233016 54 45 4.3 7.8 0.00 0.22 0.22 78 1017.9
20260502232016 54 45 5.2 7.0 0.00 0.22 0.22 77 1018.2
20260502231016 54 90 2.6 5.2 0.00 0.22 0.22 76 1018.3
20260502230056 55 68 3.5 5.2 0.00 0.22 0.22 75 1018.2
20260502225016 55 68 1.7 4.3 0.00 0.22 0.22 74 1018.3
20260502224016 55 45 2.6 5.2 0.00 0.22 0.22 73 1018.3
20260502223016 55 45 3.5 6.1 0.00 0.22 0.22 73 1018.3
20260502222016 55 45 3.5 7.0 0.00 0.22 0.22 70 1018.4
20260502221056 56 0 2.6 4.3 0.00 0.22 0.22 68 1018.5
20260502220016 56 0 2.6 5.2 0.00 0.22 0.22 69 1018.7
20260502215036 56 0 1.7 3.5 0.00 0.22 0.22 69 1018.8
20260502214016 56 0 1.7 4.3 0.00 0.22 0.22 71 1018.9
20260502213016 56 338 1.7 4.3 0.00 0.22 0.22 71 1018.9
20260502212015 56 270 0.9 2.6 0.00 0.22 0.22 71 1019.1
20260502211016 57 0.0 0.0 0.00 0.22 0.22 68 1019.1
20260502210016 57 0.0 0.0 0.00 0.22 0.22 69 1019.1
20260502205015 57 0.0 0.0 0.00 0.22 0.22 69 1019.0
20260502204015 56 0.0 0.0 0.00 0.22 0.22 70 1018.8
20260502203016 56 0.0 1.7 0.00 0.22 0.22 74 1018.6
20260502202016 56 23 0.9 2.6 0.00 0.22 0.22 77 1018.6
20260502201016 56 23 2.6 3.5 0.00 0.22 0.22 78 1018.3